Wise, VA

9:25 PM EDT on May 25, 2017 (GMT -0400)
Lonesome Pine

Weather History for KLNP - February, 2015

Change the Weather History Date:

Thursday, February 26, 2015

  Actual Average Record
Temperature  
Mean Temperature 29 °F -  
Max Temperature 32 °F 46 °F 69 °F (1998)
Min Temperature 26 °F 29 °F 17 °F (2014)
Degree Days  
Heating Degree Days 36    
Moisture  
Dew Point 25 °F    
Average Humidity 84    
Maximum Humidity 100    
Minimum Humidity 59    
Precipitation  
Precipitation 0.22 in - - ()
Sea Level Pressure  
Sea Level Pressure 29.87 in    
Wind  
Wind Speed 4 mph (NW)    
Max Wind Speed 8 mph    
Max Gust Speed -    
Visibility 8 miles    
Events Snow    
Averages and records for this station are not official NWS values.
T = Trace of Precipitation, MM = Missing Value Source: NWS Daily Summary

Daily Weather History Graph

Daily Weather History Graph

Search for Another Location

Airport or City:

Trip Planner

Search our weather history database for the weather conditions in past years. The results will help you decide how hot, cold, wet, or windy it might be!

Date:

Astronomy

Feb. 26, 2015 Rise Set
Actual Time 7:05 AM EST 6:21 PM EST
Civil Twilight 6:39 AM EST 6:47 PM EST
Nautical Twilight 6:09 AM EST 7:17 PM EST
Astronomical Twilight 5:39 AM EST 7:47 PM EST
Moon 12:25 PM EST 1:56 AM EST
Length of Visible Light 12h 08m
Length of Day
11h 15m
First Quarter, 60% of the Moon is Illuminated
Feb 26
First Quarter
Mar 5
Full
Mar 13
Last Quarter
Mar 20
New
Mar 27
First Quarter

Hourly Weather History & Observations

Time (EST) Temp. Windchill Dew Point Humidity Pressure Visibility Wind Dir Wind Speed Gust Speed Precip Events Conditions
12:15 AM 28.4 °F 23.3 °F 28.4 °F 100% 29.71 in 1.2 mi NNE 4.6 mph - N/A Snow Snow
12:35 AM 28.4 °F - 28.4 °F 100% 29.71 in 0.8 mi Calm Calm - N/A Snow Snow
12:55 AM 28.4 °F - 28.4 °F 100% 29.72 in 0.8 mi Calm Calm - N/A Snow Snow
1:15 AM 28.4 °F 24.6 °F 28.4 °F 100% 29.72 in 0.5 mi North 3.5 mph - N/A Snow Heavy Snow
1:35 AM 28.4 °F 24.6 °F 28.4 °F 100% 29.72 in 0.5 mi North 3.5 mph - 0.01 in Snow Snow
1:55 AM 28.4 °F 23.3 °F 28.4 °F 100% 29.72 in 0.8 mi North 4.6 mph - 0.01 in Snow Snow
2:15 AM 28.4 °F 22.2 °F 28.4 °F 100% 29.71 in 1.5 mi North 5.8 mph - 0.02 in Snow Light Snow
2:35 AM 28.4 °F 24.6 °F 28.4 °F 100% 29.71 in 2.0 mi NNW 3.5 mph - 0.05 in Snow Light Snow
2:55 AM 28.4 °F 22.2 °F 28.4 °F 100% 29.70 in 2.5 mi NNW 5.8 mph - 0.06 in Snow Light Snow
3:15 AM 28.4 °F 23.3 °F 28.4 °F 100% 29.70 in 1.5 mi North 4.6 mph - N/A Snow Light Snow
3:35 AM 26.6 °F 21.2 °F 26.6 °F 100% 29.70 in 2.0 mi NNW 4.6 mph - 0.01 in Snow Light Snow
3:55 AM 26.6 °F 21.2 °F 26.6 °F 100% 29.69 in 5.0 mi NNW 4.6 mph - 0.03 in   Overcast
4:15 AM 26.6 °F - 26.6 °F 100% 29.70 in 4.0 mi Calm Calm - 0.01 in Snow Light Snow
4:35 AM 26.6 °F - 26.6 °F 100% 29.71 in 4.0 mi Calm Calm - 0.03 in Snow Light Snow
4:55 AM 26.6 °F - 26.6 °F 100% 29.70 in 4.0 mi Calm Calm - 0.05 in Snow Light Snow
5:15 AM 26.6 °F 22.6 °F 26.6 °F 100% 29.71 in 7.0 mi NE 3.5 mph - 0.02 in Snow Light Snow
5:35 AM 26.6 °F 22.6 °F 26.6 °F 100% 29.70 in 5.0 mi NNE 3.5 mph - 0.02 in   Overcast
5:55 AM 26.6 °F 22.6 °F 26.6 °F 100% 29.71 in 7.0 mi North 3.5 mph - 0.03 in   Overcast
6:15 AM 26.6 °F 21.2 °F 26.6 °F 100% 29.72 in 10.0 mi NNW 4.6 mph - N/A   Overcast
6:35 AM 26.6 °F 21.2 °F 26.6 °F 100% 29.72 in 10.0 mi NNW 4.6 mph - N/A   Overcast
6:55 AM 26.6 °F 22.6 °F 26.6 °F 100% 29.75 in 7.0 mi NW 3.5 mph - 0.01 in   Overcast
7:15 AM 26.6 °F 22.6 °F 26.6 °F 100% 29.76 in 10.0 mi NW 3.5 mph - N/A   Overcast
7:35 AM 26.6 °F - 26.6 °F 100% 29.76 in 7.0 mi Calm Calm - N/A   Overcast
7:55 AM 26.6 °F 22.6 °F 26.6 °F 100% 29.77 in 10.0 mi WSW 3.5 mph - 0.01 in   Overcast
8:15 AM 28.4 °F - 28.4 °F 100% 29.77 in 10.0 mi Calm Calm - 0.01 in   Overcast
8:35 AM 28.4 °F - 28.4 °F 100% 29.78 in 10.0 mi Calm Calm - 0.02 in   Overcast
8:55 AM 28.4 °F 24.6 °F 28.4 °F 100% 29.77 in 10.0 mi NNE 3.5 mph - 0.02 in   Overcast
9:15 AM 30.2 °F 26.7 °F 28.4 °F 93% 29.79 in 10.0 mi NW 3.5 mph - N/A   Overcast
9:35 AM 30.2 °F 26.7 °F 26.6 °F 86% 29.79 in 10.0 mi NW 3.5 mph - N/A   Overcast
9:55 AM 30.2 °F - 24.8 °F 80% 29.80 in 10.0 mi Calm Calm - N/A   Overcast
10:15 AM 32.0 °F 28.7 °F 26.6 °F 80% 29.81 in 10.0 mi WNW 3.5 mph - N/A   Overcast
10:35 AM 32.0 °F - 26.6 °F 80% 29.82 in 10.0 mi Calm Calm - N/A   Overcast
10:55 AM 32.0 °F 25.6 °F 26.6 °F 80% 29.84 in 10.0 mi WNW 6.9 mph - N/A   Overcast
11:15 AM 30.2 °F 23.4 °F 26.6 °F 86% 29.86 in 10.0 mi NNW 6.9 mph - N/A   Overcast
11:35 AM 30.2 °F 24.3 °F 26.6 °F 86% 29.86 in 10.0 mi NNW 5.8 mph - N/A   Overcast
11:55 AM 32.0 °F 26.4 °F 26.6 °F 80% 29.87 in 10.0 mi NNW 5.8 mph - N/A   Overcast
12:15 PM 32.0 °F 26.4 °F 26.6 °F 80% 29.88 in 10.0 mi NNW 5.8 mph - N/A   Overcast
12:35 PM 32.0 °F 25.6 °F 26.6 °F 80% 29.88 in 10.0 mi NNW 6.9 mph - N/A   Overcast
12:55 PM 32.0 °F 24.8 °F 26.6 °F 80% 29.88 in 10.0 mi NNW 8.1 mph - N/A   Overcast
1:15 PM 32.0 °F 26.4 °F 26.6 °F 80% 29.88 in 10.0 mi NW 5.8 mph - N/A   Overcast
1:35 PM 30.2 °F 22.6 °F 24.8 °F 80% 29.88 in 10.0 mi NW 8.1 mph - N/A   Overcast
1:55 PM 30.2 °F 24.3 °F 26.6 °F 86% 29.88 in 10.0 mi NW 5.8 mph - N/A   Overcast
2:15 PM 30.2 °F 25.4 °F 26.6 °F 86% 29.88 in 10.0 mi WNW 4.6 mph - N/A   Overcast
2:35 PM 32.0 °F 26.4 °F 26.6 °F 80% 29.89 in 10.0 mi WNW 5.8 mph - N/A   Overcast
2:55 PM 32.0 °F - 26.6 °F 80% 29.89 in 10.0 mi Calm Calm - N/A   Overcast
3:15 PM 32.0 °F 28.7 °F 26.6 °F 80% 29.89 in 10.0 mi NW 3.5 mph - N/A   Overcast
3:35 PM 32.0 °F 28.7 °F 24.8 °F 75% 29.90 in 10.0 mi WNW 3.5 mph - N/A   Overcast
3:55 PM 32.0 °F 27.5 °F 24.8 °F 75% 29.91 in 10.0 mi NW 4.6 mph - N/A   Overcast
4:15 PM 32.0 °F 27.5 °F 23.0 °F 69% 29.92 in 10.0 mi NW 4.6 mph - N/A   Overcast
4:35 PM 32.0 °F 24.8 °F 23.0 °F 69% 29.94 in 10.0 mi WNW 8.1 mph - N/A   Overcast
4:55 PM 32.0 °F 25.6 °F 23.0 °F 69% 29.95 in 10.0 mi WNW 6.9 mph - N/A   Overcast
5:15 PM 32.0 °F 27.5 °F 21.2 °F 64% 29.95 in 10.0 mi West 4.6 mph - N/A   Overcast
5:35 PM 32.0 °F 25.6 °F 21.2 °F 64% 29.96 in 10.0 mi WSW 6.9 mph - N/A   Mostly Cloudy
5:55 PM 32.0 °F 25.6 °F 21.2 °F 64% 29.98 in 10.0 mi West 6.9 mph - N/A   Clear
6:15 PM 30.2 °F 25.4 °F 19.4 °F 64% 29.98 in 10.0 mi West 4.6 mph - N/A   Clear
6:35 PM 28.4 °F 24.6 °F 19.4 °F 69% 29.99 in 10.0 mi WSW 3.5 mph - N/A   Clear
6:55 PM 26.6 °F 21.2 °F 17.6 °F 69% 30.00 in 10.0 mi WSW 4.6 mph - N/A   Clear
7:15 PM 26.6 °F 21.2 °F 19.4 °F 74% 30.02 in 10.0 mi WSW 4.6 mph - N/A   Mostly Cloudy
7:35 PM 26.6 °F 21.2 °F 21.2 °F 80% 30.02 in 10.0 mi SW 4.6 mph - N/A   Overcast
7:50 PM 28.4 °F 23.3 °F 21.2 °F 74% 30.02 in 10.0 mi SW 4.6 mph - N/A   Overcast
8:15 PM 26.6 °F 22.6 °F 19.4 °F 74% 30.03 in 10.0 mi SW 3.5 mph - N/A   Mostly Cloudy
8:35 PM 26.6 °F 21.2 °F 21.2 °F 80% 30.03 in 10.0 mi WNW 4.6 mph - N/A   Scattered Clouds
8:55 PM 30.2 °F 23.4 °F 21.2 °F 69% 30.05 in 10.0 mi WNW 6.9 mph - N/A   Mostly Cloudy
9:15 PM 30.2 °F 24.3 °F 19.4 °F 64% 30.05 in 10.0 mi NW 5.8 mph - N/A   Overcast
9:35 PM 28.4 °F 20.4 °F 19.4 °F 69% 30.07 in 10.0 mi WNW 8.1 mph - N/A   Scattered Clouds
9:55 PM 28.4 °F 21.2 °F 19.4 °F 69% 30.08 in 10.0 mi WNW 6.9 mph - N/A   Mostly Cloudy
10:15 PM 28.4 °F 23.3 °F 17.6 °F 64% 30.09 in 10.0 mi WNW 4.6 mph - N/A   Mostly Cloudy
10:35 PM 28.4 °F 22.2 °F 17.6 °F 64% 30.10 in 10.0 mi WNW 5.8 mph - N/A   Overcast
10:55 PM 28.4 °F 22.2 °F 17.6 °F 64% 30.11 in 10.0 mi WNW 5.8 mph - N/A   Overcast
11:15 PM 28.4 °F 22.2 °F 15.8 °F 59% 30.11 in 10.0 mi WNW 5.8 mph - N/A   Overcast
11:35 PM 28.4 °F 20.4 °F 17.6 °F 64% 30.12 in 10.0 mi WNW 8.1 mph - N/A   Overcast
11:55 PM 26.6 °F 19.1 °F 17.6 °F 69% 30.12 in 10.0 mi WNW 6.9 mph - N/A   Overcast